Youngstown, OH

9:37 PM EDT on June 25, 2017 (GMT -0400)
Youngstown-Warren Regional

Weather History for KYNG - September, 2011

Change the Weather History Date:

Thursday, September 22, 2011

  Actual Average Record
Temperature  
Mean Temperature 68 °F 60 °F  
Max Temperature 77 °F 70 °F 92 °F (1931)
Min Temperature 58 °F 49 °F 32 °F (1999)
Degree Days  
Heating Degree Days 0 7  
Month to date heating degree days 70 82  
Since 1 July heating degree days 80 120  
Cooling Degree Days 3 1  
Month to date cooling degree days 72 44  
Year to date cooling degree days 724 530  
Growing Degree Days 18 (Base 50)    
Moisture  
Dew Point 58 °F    
Average Humidity 73    
Maximum Humidity 100    
Minimum Humidity 46    
Precipitation  
Precipitation 0.00 in 0.13 in 1.19 in (1986)
Month to date precipitation 4.96 2.80  
Year to date precipitation 40.12 29.02  
Snow  
Snow 0.00 in 0.00 in - ()
Month to date snowfall 0.0 0.0  
Since 1 July snowfall T 0.0  
Since 1 September snowfall 0.0 0.0  
Snow Depth 0.00 in    
Sea Level Pressure  
Sea Level Pressure 30.07 in    
Wind  
Wind Speed 5 mph (WSW)    
Max Wind Speed 13 mph    
Max Gust Speed 17 mph    
Visibility 8 miles    
Events      
T = Trace of Precipitation, MM = Missing Value Source: NWS Daily Summary

Daily Weather History Graph

Daily Weather History Graph

Search for Another Location

Airport or City:

Trip Planner

Search our weather history database for the weather conditions in past years. The results will help you decide how hot, cold, wet, or windy it might be!

Date:

Astronomy

Sep. 22, 2011 Rise Set
Actual Time 7:09 AM EDT 7:20 PM EDT
Civil Twilight 6:42 AM EDT 7:47 PM EDT
Nautical Twilight 6:10 AM EDT 8:20 PM EDT
Astronomical Twilight 5:37 AM EDT 8:52 PM EDT
Moon 1:26 AM EDT (9/22) 4:14 PM EDT (9/22)
Length of Visible Light 13h 05m
Length of Day
12h 10m
Waning Crescent, 29% of the Moon is Illuminated
Sep 22
Waning Crescent
Sep 27
New
Oct 3
First Quarter
Oct 11
Full
Oct 19
Last Quarter

Hourly Weather History & Observations

Time (EDT) Temp. Dew Point Humidity Pressure Visibility Wind Dir Wind Speed Gust Speed Precip Events Conditions
12:51 AM 64.9 °F 63.0 °F 93% 30.02 in 8.0 mi South 4.6 mph - N/A   Mostly Cloudy
1:51 AM 64.0 °F 63.0 °F 96% 30.02 in 6.0 mi South 4.6 mph - N/A   Scattered Clouds
2:24 AM 64.4 °F 62.6 °F 94% 30.04 in 6.0 mi South 4.6 mph - N/A   Mostly Cloudy
2:51 AM 64.9 °F 64.0 °F 97% 30.01 in 6.0 mi South 4.6 mph - N/A   Mostly Cloudy
3:33 AM 64.4 °F 64.4 °F 100% 30.04 in 6.0 mi SSW 4.6 mph - N/A   Overcast
3:51 AM 64.9 °F 64.0 °F 97% 30.02 in 6.0 mi SW 4.6 mph - N/A   Overcast
4:51 AM 64.9 °F 64.0 °F 97% 30.02 in 5.0 mi WSW 5.8 mph - N/A   Overcast
5:41 AM 64.4 °F 62.6 °F 94% 30.05 in 3.0 mi SW 3.5 mph - N/A   Overcast
5:51 AM 63.0 °F 62.1 °F 97% 30.04 in 3.0 mi WSW 3.5 mph - N/A   Overcast
6:03 AM 62.6 °F 62.6 °F 100% 30.05 in 2.0 mi Calm Calm - N/A   Overcast
6:31 AM 64.4 °F 62.6 °F 94% 30.06 in 1.8 mi West 3.5 mph - N/A   Overcast
6:51 AM 64.0 °F 63.0 °F 96% 30.05 in 1.8 mi Calm Calm - N/A   Overcast
7:08 AM 64.4 °F 62.6 °F 94% 30.06 in 1.8 mi West 3.5 mph - N/A   Overcast
7:18 AM 64.4 °F 62.6 °F 94% 30.07 in 2.5 mi WNW 3.5 mph - N/A   Overcast
7:25 AM 62.6 °F 60.8 °F 94% 30.07 in 4.0 mi North 9.2 mph - N/A   Overcast
7:39 AM 62.6 °F 55.4 °F 77% 30.08 in 10.0 mi North 5.8 mph - N/A   Overcast
7:51 AM 62.1 °F 55.9 °F 80% 30.07 in 10.0 mi Calm Calm - N/A   Overcast
8:34 AM 62.6 °F 57.2 °F 82% 30.09 in 10.0 mi NE 3.5 mph - N/A   Overcast
8:51 AM 63.0 °F 57.0 °F 81% 30.08 in 10.0 mi East 4.6 mph - N/A   Mostly Cloudy
9:51 AM 66.0 °F 55.9 °F 70% 30.09 in 10.0 mi NE 3.5 mph - N/A   Scattered Clouds
10:17 AM 66.2 °F 55.4 °F 68% 30.12 in 10.0 mi Calm Calm - N/A   Overcast
10:51 AM 66.9 °F 55.0 °F 66% 30.11 in 10.0 mi Calm Calm - N/A   Overcast
11:16 AM 68.0 °F 55.4 °F 64% 30.12 in 10.0 mi Calm Calm - N/A   Scattered Clouds
11:44 AM 69.8 °F 57.2 °F 64% 30.12 in 10.0 mi Calm Calm - N/A   Mostly Cloudy
11:51 AM 70.0 °F 59.0 °F 68% 30.10 in 10.0 mi Calm Calm - N/A   Mostly Cloudy
12:51 PM 71.6 °F 57.2 °F 60% 30.12 in 10.0 mi WSW 6.9 mph - N/A   Mostly Cloudy
1:39 PM 73.4 °F 59.0 °F 61% 30.11 in 10.0 mi West 5.8 mph - N/A   Scattered Clouds
2:51 PM 73.9 °F 57.9 °F 57% 30.08 in 10.0 mi Variable 4.6 mph - N/A   Mostly Cloudy
3:51 PM 77.0 °F 55.9 °F 48% 30.06 in 10.0 mi SW 12.7 mph 17.3 mph N/A   Mostly Cloudy
4:51 PM 75.9 °F 53.1 °F 45% 30.06 in 10.0 mi WSW 8.1 mph - N/A   Mostly Cloudy
6:51 PM 70.0 °F 55.9 °F 61% 30.07 in 10.0 mi Calm Calm - N/A   Scattered Clouds
7:51 PM 64.0 °F 52.0 °F 65% 30.09 in 10.0 mi NNE 8.1 mph - N/A   Scattered Clouds
8:51 PM 61.0 °F 52.0 °F 72% 30.10 in 10.0 mi NE 5.8 mph - N/A   Partly Cloudy
9:51 PM 59.0 °F 52.0 °F 78% 30.09 in 10.0 mi ENE 5.8 mph - N/A   Mostly Cloudy
10:51 PM 60.1 °F 51.1 °F 72% 30.10 in 10.0 mi NE 3.5 mph - N/A   Overcast
11:51 PM 59.0 °F 48.9 °F 69% 30.10 in 10.0 mi ENE 5.8 mph - N/A   Mostly Cloudy